GW5023 Weather Reports


time (UTC)temp
F
wind
direction
speed
knots
gust
knots
rain 1hr
in
rain 24hr
in
rain mn
in
humidity
%
barometer
mb
20260508073022 37 51 0.0 0.0 0.00 0.01 0.00 93 1016.4
20260508071526 37 69 0.0 0.0 0.00 0.01 0.00 93 1016.3
20260508070026 37 69 0.0 0.0 0.00 0.01 0.00 93 1016.5
20260508064534 37 69 0.0 0.0 0.00 0.01 0.00 92 1016.5
20260508063017 38 69 0.0 0.0 0.00 0.02 0.00 92 1016.4
20260508061526 38 69 0.0 0.0 0.00 0.02 0.00 92 1016.4
20260508060027 38 69 0.0 0.0 0.00 0.02 0.00 92 1016.4
20260508054539 39 69 0.0 0.0 0.00 0.03 0.00 92 1016.3
20260508053016 39 69 0.0 0.0 0.00 0.03 0.00 92 1016.4
20260508051518 39 69 0.0 1.7 0.00 0.04 0.00 92 1016.4
20260508050023 40 69 0.0 1.7 0.00 0.05 0.00 91 1016.4
20260508044524 40 69 0.0 1.7 0.00 0.05 0.00 91 1016.4
20260508043028 40 69 0.0 1.7 0.00 0.06 0.00 91 1016.2
20260508041519 41 69 0.0 1.7 0.00 0.06 0.00 91 1016.1
20260508040037 41 69 0.0 1.7 0.00 0.06 0.00 90 1016.0
20260508034538 41 74 0.0 1.7 0.00 0.06 0.06 90 1015.8
20260508033028 42 73 0.0 1.7 0.00 0.06 0.06 89 1015.6
20260508031517 42 73 0.0 1.7 0.00 0.06 0.06 88 1015.4
20260508030023 43 55 0.0 1.7 0.00 0.06 0.06 88 1015.3
20260508024527 43 55 0.0 1.7 0.00 0.06 0.06 87 1015.1
20260508023024 43 51 0.0 1.7 0.00 0.06 0.06 86 1015.0
20260508021527 44 77 0.0 1.7 0.00 0.06 0.06 84 1014.6
20260508020016 45 77 0.0 1.7 0.00 0.06 0.06 83 1014.5
20260508014520 46 70 0.0 1.7 0.00 0.06 0.06 81 1014.3
20260508013023 46 70 0.0 1.7 0.00 0.06 0.06 80 1014.1
20260508011529 47 70 0.0 1.7 0.00 0.07 0.06 76 1013.7
20260508010030 48 70 0.0 1.7 0.00 0.07 0.06 74 1013.5
20260508004521 49 69 0.0 1.7 0.00 0.07 0.06 71 1013.2
20260508003023 51 69 0.0 1.7 0.00 0.07 0.06 68 1013.1
20260508001525 52 42 0.0 1.7 0.00 0.07 0.06 63 1012.9
20260508000031 55 273 0.0 7.8 0.00 0.08 0.06 55 1012.5
20260507234543 57 199 4.3 10.4 0.00 0.13 0.06 43 1012.4
20260507233022 58 241 1.7 8.7 0.00 0.18 0.06 47 1012.3
20260507231526 59 226 4.3 12.2 0.00 0.19 0.06 43 1012.1
20260507230030 58 229 3.5 7.0 0.00 0.19 0.06 44 1012.0
20260507224528 59 232 5.2 7.8 0.00 0.20 0.06 45 1012.1
20260507223028 59 267 1.7 12.2 0.00 0.20 0.06 44 1012.0
20260507221532 60 224 2.6 9.6 0.00 0.22 0.06 44 1011.9
20260507220035 60 287 4.3 9.6 0.00 0.22 0.06 43 1011.7
20260507214507 60 219 5.2 9.6 0.00 0.23 0.06 44 1011.6
20260507213016 61 240 2.6 7.8 0.00 0.23 0.06 44 1011.5
20260507211510 60 242 2.6 7.0 0.00 0.24 0.06 45 1011.2
20260507210008 61 259 1.7 9.6 0.00 0.24 0.06 44 1011.2
20260507204511 59 226 2.6 10.4 0.00 0.25 0.06 47 1011.1
20260507203012 60 229 2.6 8.7 0.00 0.25 0.06 47 1011.1
20260507201511 60 257 3.5 7.8 0.00 0.25 0.06 49 1011.3
20260507200013 59 277 3.5 8.7 0.00 0.26 0.06 50 1011.5
20260507194527 59 223 4.3 11.3 0.00 0.27 0.06 53 1011.7
20260507193015 60 226 4.3 10.4 0.00 0.27 0.06 49 1011.7
20260507191512 59 106 2.6 8.7 0.00 0.27 0.06 53 1012.1
20260507190019 58 347 3.5 7.0 0.00 0.28 0.06 51 1012.0
20260507184512 59 293 1.7 7.0 0.00 0.28 0.06 51 1012.1
20260507183015 59 306 1.7 7.8 0.00 0.28 0.06 53 1012.2
20260507181515 58 239 2.6 6.1 0.00 0.28 0.06 53 1012.1
20260507180018 60 210 3.5 7.0 0.00 0.28 0.06 56 1012.2
20260507174515 58 217 3.5 7.0 0.00 0.29 0.06 52 1012.2
20260507173031 59 238 2.6 5.2 0.00 0.31 0.06 53 1012.5
20260507171516 58 208 1.7 4.3 0.00 0.32 0.06 58 1012.7
20260507170020 56 234 1.7 5.2 0.00 0.34 0.06 54 1012.9
20260507164522 56 230 2.6 5.2 0.00 0.35 0.06 53 1013.2
20260507163017 56 219 1.7 7.0 0.00 0.36 0.06 55 1013.1
20260507161516 56 265 0.9 3.5 0.00 0.36 0.06 57 1013.0
20260507160024 56 227 1.7 5.2 0.00 0.36 0.06 56 1013.2
20260507154516 55 142 2.6 6.1 0.00 0.36 0.06 59 1013.5
20260507153016 55 323 0.9 6.1 0.00 0.36 0.06 60 1013.5
20260507151517 55 144 1.7 7.8 0.00 0.36 0.06 61 1013.5
20260507150017 54 160 0.9 4.3 0.00 0.36 0.06 66 1013.6
20260507144516 53 255 3.5 5.2 0.00 0.36 0.06 64 1013.9
20260507143023 54 207 3.5 6.1 0.00 0.36 0.06 70 1013.9
20260507141520 52 234 2.6 4.3 0.00 0.36 0.06 70 1014.1
20260507140022 51 281 0.9 2.6 0.00 0.36 0.06 78 1014.3
20260507134520 51 12 0.9 1.7 0.00 0.36 0.06 82 1014.4
20260507133021 50 219 0.9 1.7 0.00 0.36 0.06 83 1014.4
20260507131520 50 221 0.0 1.7 0.00 0.36 0.06 83 1014.5
20260507130019 49 327 0.9 1.7 0.00 0.36 0.06 87 1014.5
20260507124521 49 214 0.0 1.7 0.00 0.36 0.06 90 1014.8
20260507123003 48 221 0.0 1.7 0.00 0.38 0.06 91 1014.8
20260507121512 48 199 0.0 1.7 0.00 0.38 0.06 92 1014.7
20260507120011 48 220 0.9 2.6 0.00 0.41 0.06 92 1014.7
20260507114516 48 237 0.0 0.9 0.00 0.43 0.06 92 1014.6
20260507113038 47 237 0.0 0.9 0.00 0.45 0.06 92 1014.5
20260507111504 47 231 0.0 1.7 0.00 0.46 0.06 92 1014.2
20260507110015 47 231 0.0 1.7 0.00 0.47 0.06 92 1014.0
20260507104514 47 126 0.0 1.7 0.00 0.52 0.06 92 1013.7
20260507103021 47 96 0.0 0.0 0.00 0.54 0.06 92 1013.6
20260507101525 47 96 0.0 0.0 0.00 0.56 0.06 92 1013.7
20260507100006 47 96 0.0 0.0 0.00 0.56 0.06 92 1013.8
20260507094511 48 96 0.9 1.7 0.00 0.57 0.06 91 1013.8
20260507093018 48 175 0.9 4.3 0.00 0.63 0.06 88 1013.8
20260507091524 48 210 1.7 5.2 0.00 0.68 0.06 88 1013.7
20260507090024 48 202 0.9 5.2 0.01 0.71 0.06 88 1013.5
20260507084510 49 239 1.7 6.1 0.01 0.72 0.06 89 1013.7
20260507083024 49 228 1.7 7.0 0.01 0.73 0.06 90 1013.7
20260507081532 49 258 2.6 7.0 0.01 0.73 0.06 90 1013.5
20260507080024 50 217 2.6 5.2 0.00 0.72 0.05 91 1013.3
20260507074526 51 214 0.9 2.6 0.00 0.72 0.05 92 1013.4